Location: Sagn�
(15.2046°N, 12.7898°W)
Time: 13:58:29
(UTC+00:00)

Cosmos 968 Rocket - Pass Details

Date: 08 May 2021
Orbit: 741 x 770 km, 74.0° (Epoch: 14 June)

Event Time Altitude Azimuth Distance (km) Brightness Sun altitude
Rises 19:40:52 0° 173° (S) 3,227 6.5 -7.7°
Reaches altitude 10° 19:43:26 10° 164° (SSE) 2,303 5.6 -8.3°
Maximum altitude 19:48:07 34° 101° (E) 1,253 4.1 -9.3°
Drops below altitude 10° 19:52:47 10° 37° (NE) 2,302 5.8 -10.4°
Sets 19:55:20 0° 28° (NNE) 3,226 6.7 -11.0°
